15 daagse weersverwachting Ponte de Lima (PT)

  • Overzicht
  • Per uur
  • 15 dagen
  • Extra
  • Vergelijk
  • Kaarten
  • Dagkaart
  • Meer »
  • Info
  • Statistieken
  • Directe link
    Temp 6h Neerslag Wind  
 07:32     17:09    Daglengte: 9:37 Morgen
00:00
10°
2.9 mm
2
06:00
4.8 mm
1
12:00
13°
2.3 mm
3
18:00
10°
5.3 mm
2
 07:33     17:08    Daglengte: 9:35 Vrijdag 22 Nov
00:00
11°
7.8 mm
5
06:00
13°
44.6 mm
6
warningclass
12:00
14°
50.2 mm
6
18:00
12°
47.7 mm
4
 07:34     17:08    Daglengte: 9:34 Zaterdag 23 Nov
00:00
10°
25.5 mm
3
06:00
 
1
12:00
12°
86.6 mm
2
18:00
17.4 mm
2
Locatie info
Region: Viana do Castelo
Latitude: 41.7690°N
Longitude: -8.5769°E
13 masl
Postcode: 4990
Temp/Neerslag /Baro Onweer/Dauwpunt
    Temp Baro 1h Neerslag Dauwpunt Wind UV Bewolking  
 07:31     17:10    Daglengte: 9:39 Vandaag
23:00
Voelt als: 8.7°
1006.3 hPa 2.1 mm
48%
9.0°
2
Windvlaag: 1.1 km/h
78%
 07:32     17:09    Daglengte: 9:37 Morgen
00:00
10°
Voelt als: 8.9°
1006.1 hPa 0.8 mm
82%
9.3°
2
Windvlaag: 1.4 km/h
75%
01:00
10°
Voelt als: 9.3°
1006.0 hPa 0.8 mm
82%
9.3°
2
Windvlaag: 1.1 km/h
79%
02:00
10°
Voelt als: 9.4°
1006.0 hPa 0.9 mm
82%
9.2°
1
Windvlaag: 1.4 km/h
85%
03:00
Voelt als: 9.0°
1006.0 hPa 1.0 mm
82%
8.9°
1
Windvlaag: 1.2 km/h
89%
04:00
Voelt als: 9.3°
1005.9 hPa 0.7 mm
81%
9.0°
1
Windvlaag: 1.2 km/h
73%
05:00
Voelt als: 9.0°
1005.9 hPa 0.6 mm
76%
8.7°
1
Windvlaag: 1 km/h
71%
06:00
Voelt als: 9.0°
1006.1 hPa 0.8 mm
76%
8.7°
1
Windvlaag: 1.1 km/h
66%
07:00
Voelt als: 8.5°
1006.4 hPa
74%
8.2°
1
Windvlaag: 0.3 km/h
63%
08:00
Voelt als: 8.9°
1007.0 hPa 0.9 mm
42%
8.3°
1
Windvlaag: -0 km/h
54%
09:00
10°
Voelt als: 9.5°
1007.3 hPa
82%
9.0°
2
Windvlaag: -0.1 km/h
52%
10:00
11°
1007.3 hPa
82%
9.9°
2
Windvlaag: 0.2 km/h
47%
11:00
12°
1007.4 hPa 0.7 mm
82%
10.8°
2
Windvlaag: 0.7 km/h
44%
12:00
13°
1007.1 hPa 0.8 mm
82%
11.0°
3
Windvlaag: 2.1 km/h
51%
13:00
12°
1006.5 hPa 1.1 mm
82%
10.5°
3
Windvlaag: 2.6 km/h
45%
14:00
13°
1005.8 hPa 1.0 mm
82%
10.9°
2
Windvlaag: 2.7 km/h
48%
15:00
12°
1005.6 hPa 0.7 mm
82%
10.9°
2
Windvlaag: 2 km/h
62%
16:00
12°
1005.6 hPa 1.0 mm
81%
10.2°
3
Windvlaag: 2.1 km/h
49%
17:00
11°
1005.6 hPa 0.7 mm
80%
10.1°
2
Windvlaag: 2.6 km/h
87%
18:00
10°
1005.6 hPa 0.8 mm
79%
9.8°
2
Windvlaag: 2.4 km/h
90%
19:00
11°
1005.1 hPa 1.1 mm
77%
9.9°
2
Windvlaag: 2.3 km/h
86%
20:00
10°
1004.6 hPa 0.9 mm
73%
9.7°
2
Windvlaag: 3.4 km/h
90%
21:00
11°
1003.7 hPa 1.1 mm
74%
9.7°
3
Windvlaag: 3.7 km/h
90%
22:00
11°
1002.8 hPa 1.4 mm
74%
10.2°
4
Windvlaag: 4.3 km/h
91%
23:00
11°
1001.6 hPa 1.0 mm
82%
10.3°
4
Windvlaag: 5 km/h
91%
 07:33     17:08    Daglengte: 9:35 Vrijdag 22 Nov
00:00
11°
1000.5 hPa 2.4 mm
82%
10.2°
5
Windvlaag: 5.7 km/h
91%
01:00
11°
999.2 hPa 4.0 mm
82%
10.3°
5
Windvlaag: 6.4 km/h
91%
02:00
11°
997.4 hPa 6.0 mm
82%
10.5°
6
Windvlaag: 7 km/h
91%
03:00
11°
995.7 hPa 8.4 mm
82%
10.7°
6
Windvlaag: 7.2 km/h
91%
04:00
12°
994.2 hPa 9.8 mm
82%
11.0°
6
Windvlaag: 7 km/h
90%
05:00
12°
992.7 hPa 8.1 mm
82%
12.0°
5
Windvlaag: 6.8 km/h
91% warningclass
06:00
13°
991.3 hPa 8.2 mm
82%
12.9°
6
Windvlaag: 7.6 km/h
90% warningclass
07:00
14°
990.1 hPa 8.7 mm
82%
13.3°
6
Windvlaag: 7.5 km/h
91% warningclass
08:00
14°
989.0 hPa 10.3 mm
82%
13.6°
6
Windvlaag: 8.8 km/h
91% warningclass
09:00
14°
988.6 hPa 10.4 mm
82%
13.6°
6
Windvlaag: 7.9 km/h
91% warningclass
10:00
14°
988.9 hPa 8.6 mm
82%
13.0°
5
Windvlaag: 4.9 km/h
87% warningclass
11:00
13°
989.9 hPa 5.9 mm
82%
11.4°
6
Windvlaag: 4.1 km/h
54%
12:00
14°
989.9 hPa 6.2 mm
82%
10.7°
6
Windvlaag: 4.5 km/h
57%
13:00
13°
989.6 hPa 7.0 mm
82%
11.1°
6
Windvlaag: 4.6 km/h
79% warningclass
14:00
13°
989.3 hPa 7.3 mm
82%
11.6°
6
Windvlaag: 4 km/h
79%
15:00
13°
989.9 hPa 6.7 mm
82%
11.3°
5
Windvlaag: 3.2 km/h
73% warningclass
16:00
13°
991.0 hPa 6.8 mm
82%
10.8°
5
Windvlaag: 3.8 km/h
51% warningclass
17:00
12°
991.9 hPa 9.6 mm
82%
10.7°
4
Windvlaag: 3.9 km/h
66% warningclass
18:00
12°
992.9 hPa 10.3 mm
82%
10.8°
4
Windvlaag: 1.6 km/h
63%
19:00
11°
994.1 hPa 9.1 mm
82%
10.1°
4
Windvlaag: 0 km/h
64%
20:00
11°
995.5 hPa 9.5 mm
82%
9.7°
4
Windvlaag: -1.7 km/h
64%
21:00
11°
996.8 hPa 6.9 mm
100%
9.3°
5
Windvlaag: -2.4 km/h
74%
22:00
10°
998.0 hPa
100%
8.8°
4
Windvlaag: -2.1 km/h
62%
23:00
10°
Voelt als: 7.7°
999.1 hPa
88%
8.5°
4
Windvlaag: -1.8 km/h
47%
 07:34     17:08    Daglengte: 9:34 Zaterdag 23 Nov
00:00
10°
Voelt als: 7.9°
1000.2 hPa
45%
7.8°
3
Windvlaag: -1.4 km/h
36%
01:00
Voelt als: 7.8°
1001.2 hPa
48%
7.1°
3
Windvlaag: -1.4 km/h
41%
02:00
Voelt als: 7.5°
1002.3 hPa
48%
7.3°
2
Windvlaag: -1.8 km/h
55%
03:00
Voelt als: 7.7°
1003.5 hPa
36%
7.7°
2
Windvlaag: -1.2 km/h
27%
04:00
Voelt als: 7.3°
1004.5 hPa
81%
7.5°
2
Windvlaag: -0.8 km/h
41%
05:00
Voelt als: 7.5°
1005.4 hPa
24%
7.5°
2
Windvlaag: -0.5 km/h
46%
06:00
Voelt als: 8.5°
1006.3 hPa
28%
7.4°
1
Windvlaag: 0.2 km/h
45%
07:00
Voelt als: 8.9°
1007.3 hPa 17.3 mm
43%
7.4°
1
Windvlaag: 1.5 km/h
54%
08:00
1008.2 hPa 17.3 mm
36%
7.6°
1
Windvlaag: 1.5 km/h
59%
09:00
10°
1009.3 hPa 17.3 mm
38%
8.6°
1
Windvlaag: 1.7 km/h
56%
10:00
11°
1010.1 hPa 17.3 mm
88%
9.2°
1
Windvlaag: 1.6 km/h
67%
11:00
12°
1010.8 hPa
98%
9.9°
2
Windvlaag: 1.5 km/h
51%
12:00
12°
1010.8 hPa 17.3 mm
97%
10.6°
2
Windvlaag: 1.6 km/h
48%
13:00
13°
1010.9 hPa 17.4 mm
98%
10.7°
3
Windvlaag: 1.5 km/h
73%
14:00
13°
1011.1 hPa
88%
10.5°
3
Windvlaag: 1.4 km/h
55%
15:00
13°
1011.5 hPa
79%
10.3°
2
Windvlaag: 1.5 km/h
38%
16:00
12°
1012.2 hPa
38%
10.0°
2
Windvlaag: 1.5 km/h
26%
17:00
10°
1012.9 hPa
30%
9.5°
2
Windvlaag: 1.1 km/h
22%
18:00
Voelt als: 8.9°
1013.5 hPa
22%
8.9°
2
Windvlaag: 1.1 km/h
48%
19:00
10°
Voelt als: 9.0°
1013.8 hPa
21%
8.9°
2
Windvlaag: 7.9 km/h
66%
20:00
Voelt als: 8.8°
1014.1 hPa
21%
8.7°
2
Windvlaag: 7.3 km/h
47%
21:00
Voelt als: 8.6°
1014.3 hPa
25%
8.5°
2
Windvlaag: 7 km/h
48%
22:00
Voelt als: 8.4°
1014.7 hPa
77%
8.3°
2
Windvlaag: 6.8 km/h
68%
Temp/Neerslag /Baro Onweer/Dauwpunt
    Temp Baro Neerslag Dauwpunt Wind Bewolking  
 07:32     17:09    Daglengte: 9:37 Morgen
00:00
10°
Voelt als: 8.9°
1006.1 hPa 2.9 mm 9.3°
2
75%
03:00
Voelt als: 9.0°
1006.0 hPa 2.7 mm 8.9°
1
89%
06:00
Voelt als: 9.0°
1006.1 hPa 2.2 mm 8.7°
1
66%
09:00
10°
Voelt als: 9.5°
1007.3 hPa 0.9 mm 9.0°
2
52%
12:00
13°
1007.1 hPa 1.5 mm 11.0°
3
51%
15:00
12°
1005.6 hPa 2.8 mm 10.9°
2
62%
18:00
10°
1005.6 hPa 2.5 mm 9.8°
2
90%
21:00
11°
1003.7 hPa 3.0 mm 9.7°
3
90%
 07:33     17:08    Daglengte: 9:35 Vrijdag 22 Nov
00:00
11°
1000.5 hPa 4.8 mm 10.2°
5
91%
03:00
11°
995.7 hPa 18.4 mm 10.7°
6
91%
06:00
13°
991.3 hPa 26.2 mm 12.9°
6
90% warningclass
09:00
14°
988.6 hPa 29.4 mm 13.6°
6
91% warningclass
12:00
14°
989.9 hPa 20.7 mm 10.7°
6
57%
15:00
13°
989.9 hPa 21.0 mm 11.3°
5
73% warningclass
18:00
12°
992.9 hPa 26.7 mm 10.8°
4
63%
21:00
11°
996.8 hPa 25.5 mm 9.3°
5
74%
 07:34     17:08    Daglengte: 9:34 Zaterdag 23 Nov
00:00
10°
Voelt als: 7.9°
1000.2 hPa   7.8°
3
36%
03:00
Voelt als: 7.7°
1003.5 hPa   7.7°
2
27%
06:00
Voelt als: 8.5°
1006.3 hPa   7.4°
1
45%
09:00
10°
1009.3 hPa 52.0 mm 8.6°
1
56%
12:00
12°
1010.8 hPa 34.6 mm 10.6°
2
48%
15:00
13°
1011.5 hPa 17.4 mm 10.3°
2
38%
18:00
Voelt als: 8.9°
1013.5 hPa   8.9°
2
48%
21:00
Voelt als: 8.6°
1014.3 hPa   8.5°
2
48%
 07:36     17:07    Daglengte: 9:31 Zondag 24 Nov
00:00
Voelt als: 8.6°
1015.1 hPa   8.3°
2
78%
03:00
11°
1013.9 hPa 64.0 mm 10.3°
2
92%
06:00
12°
1013.3 hPa 64.0 mm 11.1°
3
92%
09:00
13°
1012.8 hPa 64.0 mm 12.6°
4
92%
12:00
14°
1012.3 hPa 64.0 mm 14.1°
5
92%
15:00
15°
1011.6 hPa 64.0 mm 14.5°
5
92%
18:00
15°
1011.0 hPa 64.1 mm 14.9°
4
92%
21:00
15°
1011.8 hPa 64.8 mm 14.6°
4
81%
 07:37     17:07    Daglengte: 9:30 Maandag 25 Nov
00:00
15°
1012.6 hPa 66.3 mm 14.4°
3
70%
03:00
13°
1013.7 hPa 69.1 mm 12.4°
3
49%
06:00
12°
1014.7 hPa 69.6 mm 10.5°
2
28%
09:00
13°
1016.1 hPa 69.8 mm 11.1°
2
60%
12:00
15°
1017.3 hPa 70.0 mm 11.8°
3
92%
15:00
13°
1017.0 hPa 70.4 mm 11.4°
2
92%
18:00
11°
1016.9 hPa 70.9 mm 10.7°
2
92%
21:00
12°
1015.8 hPa 70.9 mm 10.9°
2
92%
 07:38     17:06    Daglengte: 9:28 Dinsdag 26 Nov
00:00
12°
1014.8 hPa 70.9 mm 11.0°
3
92%
03:00
13°
1012.3 hPa 70.9 mm 12.7°
3
92%
06:00
14°
1009.7 hPa 70.9 mm 14.4°
3
92%
09:00
15°
1009.3 hPa 71.3 mm 15.1°
4
92%
12:00
16°
1009.0 hPa 80.7 mm 15.8°
6
92%
15:00
16°
1008.7 hPa 104.7 mm 15.2°
5
85%
18:00
15°
1008.6 hPa 112.3 mm 14.6°
5
77%
21:00
14°
1009.7 hPa 115.2 mm 13.0°
4
79%
 07:39     17:06    Daglengte: 9:27 Woensdag 27 Nov
00:00
14°
1010.8 hPa 117.5 mm 11.3°
3
80%
03:00
13°
1011.1 hPa 119.0 mm 10.9°
2
74%
06:00
11°
1011.4 hPa 120.8 mm 10.6°
2
67%
09:00
13°
1012.8 hPa 121.3 mm 10.9°
2
72%
12:00
15°
1014.0 hPa 122.8 mm 11.0°
3
77%
15:00
14°
1014.3 hPa 124.8 mm 11.7°
3
85%
18:00
13°
1014.7 hPa 125.7 mm 12.3°
2
92%
21:00
13°
1014.9 hPa   11.9°
3
90%
 07:40     17:05    Daglengte: 9:25 Donderdag 28 Nov
00:00
12°
1015.1 hPa 254.0 mm 11.5°
3
88%
06:00
12°
1013.3 hPa 259.7 mm 10.1°
4
92%
12:00
15°
1013.0 hPa 296.7 mm 13.7°
5
92%
18:00
15°
1011.1 hPa 320.9 mm 14.9°
3
92%
 07:41     17:05    Daglengte: 9:24 Vrijdag 29 Nov
00:00
15°
1012.7 hPa 322.8 mm 14.9°
4
92%
06:00
15°
1012.2 hPa 322.9 mm 14.8°
4
92%
12:00
16°
1013.0 hPa 324.7 mm 15.5°
6
92%
18:00
15°
1012.3 hPa 326.6 mm 15.0°
5
92%
 07:42     17:04    Daglengte: 9:22 Zaterdag 30 Nov
00:00
15°
1011.5 hPa 341.5 mm 15.1°
6
92%
06:00
13°
1013.2 hPa 357.9 mm 12.5°
3
26%
12:00
15°
1016.0 hPa 361.2 mm 11.8°
5
34%
18:00
13°
1012.5 hPa 1.9 mm 10.4°
1
54%
 07:43     17:04    Daglengte: 9:21 Zondag 01 Dec
00:00
13°
1014.1 hPa 1.8 mm 9.8°
2
51%
06:00
12°
1014.7 hPa 1.3 mm 9.2°
1
51%
12:00
14°
1015.8 hPa 1.6 mm 9.8°
2
50%
18:00
13°
1015.8 hPa 1.0 mm 10.3°
2
53%
 07:44     17:04    Daglengte: 9:20 Maandag 02 Dec
00:00
12°
1016.5 hPa 0.9 mm 9.8°
3
56%
06:00
12°
1016.5 hPa 2.0 mm 9.3°
2
56%
12:00
13°
1017.3 hPa 3.5 mm 9.7°
2
62%
18:00
12°
1017.2 hPa 3.0 mm 9.5°
2
53%
 07:45     17:04    Daglengte: 9:19 Dinsdag 03 Dec
00:00
12°
1017.7 hPa 1.6 mm 9.2°
2
53%
06:00
12°
1017.2 hPa 1.5 mm 8.9°
2
51%
12:00
13°
1018.3 hPa 2.0 mm 9.9°
2
57%
18:00
13°
1018.1 hPa 2.6 mm 10.2°
2
61%
 07:46     17:03    Daglengte: 9:17 Woensdag 04 Dec
00:00
12°
1019.2 hPa 2.2 mm 10.4°
2
59%
06:00
12°
1018.5 hPa 1.4 mm 9.8°
1
61%
12:00
14°
1018.7 hPa 2.3 mm 10.2°
2
56%
18:00
13°
1017.6 hPa 2.1 mm 10.4°
1
59%
 07:47     17:03    Daglengte: 9:16 Donderdag 05 Dec
00:00
12°
1017.6 hPa 2.3 mm 9.8°
1
59%
06:00
12°
1016.3 hPa 2.8 mm 9.2°
2
56%
12:00
13°
1016.2 hPa 2.9 mm 9.7°
3
61%
18:00
13°
1015.4 hPa 5.6 mm 10.1°
2
59%
  CAPE Lifted Index Hail Supercell Tornado SRH 3km CL BTM PRES CL TOP PRES Swiss DWD icon SMHI TS
 07:31     17:10    Daglengte: 9:39 Vandaag
23:00 306 J/kg 2.7 K 0 % 0 % 0 % 0 m²/s² 0 0 3.96 80
 07:32     17:09    Daglengte: 9:37 Morgen
00:00 292 J/kg 2.7 K 0 % 0 % 0 % 0 m²/s² 0 0 4.74 80
01:00 269 J/kg 2.8 K 0 % 0 % 0 % 0 m²/s² 0 0 5.83 80
02:00 306 J/kg 2.6 K 0 % 0 % 0 % 0 m²/s² 0 0 8.12 80
03:00 269 J/kg 3.2 K 0 % 0 % 0 % 0 m²/s² 0 0 10.07 80
04:00 226 J/kg 3.8 K 0 % 0 % 0 % 0 m²/s² 0 0 10.46 80
05:00 194 J/kg 4.4 K 0 % 0 % 0 % 0 m²/s² 0 0 10.82 80
06:00 188 J/kg 4.6 K 0 % 0 % 0 % 0 m²/s² 0 0 11.98 45
07:00 158 J/kg 5.1 K 0 % 0 % 0 % 0 m²/s² 0 0 14.67 45
08:00 82 J/kg 5.5 K 0 % 0 % 0 % 0 m²/s² 0 0 14.65 45
09:00 85 J/kg 5.4 K 0 % 0 % 0 % 0 m²/s² 0 0 14.55 45
10:00 101 J/kg 5.4 K 0 % 0 % 0 % 0 m²/s² 0 0 14.58 2
11:00 94 J/kg 5.7 K 0 % 0 % 0 % 0 m²/s² 0 0 14.49 80
12:00 93 J/kg 5.7 K 0 % 0 % 0 % 0 m²/s² 0 0 14.13 80
13:00 92 J/kg 5.6 K 0 % 0 % 0 % 0 m²/s² 0 0 14.42 80
14:00 92 J/kg 5.7 K 0 % 0 % 0 % 0 m²/s² 0 0 13.83 80
15:00 97 J/kg 5.7 K 0 % 0 % 0 % 0 m²/s² 0 0 13.86 80
16:00 111 J/kg 5.7 K 0 % 0 % 0 % 0 m²/s² 0 0 12.72 80
17:00 114 J/kg 5.6 K 0 % 0 % 0 % 0 m²/s² 0 0 10.97 3
18:00 131 J/kg 5.8 K 0 % 0 % 0 % 0 m²/s² 0 0 9.19 80
19:00 116 J/kg 5.9 K 0 % 0 % 0 % 0 m²/s² 0 0 7.82 3
20:00 107 J/kg 5.9 K 0 % 0 % 0 % 0 m²/s² 0 0 7.25 3
21:00 75 J/kg 6.2 K 0 % 0 % 0 % 0 m²/s² 0 0 6.74 3
22:00 71 J/kg 6.1 K 0 % 0 % 0 % 0 m²/s² 0 0 6.34 3
23:00 77 J/kg 6.2 K 0 % 0 % 0 % 0 m²/s² 0 0 6.38 61
 07:33     17:08    Daglengte: 9:35 Vrijdag 22 Nov
00:00 53 J/kg 6.0 K 0 % 0 % 0 % 0 m²/s² 0 0 6.12 61
01:00 5 J/kg 5.1 K 0 % 0 % 0 % 0 m²/s² 0 0 5.22 63
02:00 0 J/kg 2.5 K 0 % 0 % 0 % 0 m²/s² 0 0 2.62 63
03:00 0 J/kg 0.6 K 0 % 0 % 0 % 0 m²/s² 0 0 0.72 65
04:00 179 J/kg -0.3 K 0 % 0 % 0 % 0 m²/s² 0 0 0.18 63
05:00 217 J/kg -0.7 K 0 % 0 % 0 % 0 m²/s² 0 0 -0.46 95
06:00 85 J/kg -0.2 K 0 % 0 % 0 % 0 m²/s² 0 0 0.22 95
07:00 287 J/kg -2.1 K 0 % 0 % 0 % 0 m²/s² 0 0 -1.59 95
08:00 646 J/kg -2.4 K 0 % 0 % 0 % 0 m²/s² 0 0 4.14 95
09:00 210 J/kg -0.1 K 0 % 0 % 0 % 0 m²/s² 0 0 7.34 95
10:00 300 J/kg 0.8 K 0 % 0 % 0 % 0 m²/s² 0 0 3.29 95
11:00 214 J/kg 1.4 K 0 % 0 % 0 % 0 m²/s² 0 0 1.73 80
12:00 263 J/kg 0.4 K 0 % 0 % 0 % 0 m²/s² 0 0 0.67 80
13:00 205 J/kg 0.4 K 0 % 0 % 0 % 0 m²/s² 0 0 0.61 95
14:00 319 J/kg 0.1 K 0 % 0 % 0 % 0 m²/s² 0 0 1.12 81
15:00 321 J/kg 0.7 K 0 % 0 % 0 % 0 m²/s² 0 0 2.14 95
16:00 298 J/kg 0.7 K 0 % 0 % 0 % 0 m²/s² 0 0 1.96 95
17:00 340 J/kg 0.1 K 0 % 0 % 0 % 0 m²/s² 0 0 0.85 95
18:00 391 J/kg -0.6 K 0 % 0 % 0 % 0 m²/s² 0 0 -0.06 80
19:00 308 J/kg 0.3 K 0 % 0 % 0 % 0 m²/s² 0 0 1.17 80
20:00 313 J/kg 0.9 K 0 % 0 % 0 % 0 m²/s² 0 0 1.47 80
21:00 127 J/kg 2.9 K 0 % 0 % 0 % 0 m²/s² 0 0 3.38 61
22:00 234 J/kg 0.8 K 0 % 0 % 0 % 0 m²/s² 0 0 1.07 3
23:00 241 J/kg 2.3 K 0 % 0 % 0 % 0 m²/s² 0 0 2.57 3
 07:34     17:08    Daglengte: 9:34 Zaterdag 23 Nov
00:00 194 J/kg 4.4 K 0 % 0 % 0 % 0 m²/s² 0 0 5.54 2
01:00 168 J/kg 5.3 K 0 % 0 % 0 % 0 m²/s² 0 0 6.74 2
02:00 133 J/kg 6.2 K 0 % 0 % 0 % 0 m²/s² 0 0 8.63 2
03:00 120 J/kg 7.2 K 0 % 0 % 0 % 0 m²/s² 0 0 10.32 2
04:00 142 J/kg 7.5 K 0 % 0 % 0 % 0 m²/s² 0 0 10.95 2
05:00 174 J/kg 8.4 K 0 % 0 % 0 % 0 m²/s² 0 0 13.23 1
06:00 159 J/kg 9.4 K 0 % 0 % 0 % 0 m²/s² 0 0 13.54 2
07:00 153 J/kg 9.7 K 0 % 0 % 0 % 0 m²/s² 0 0 13.54 2
08:00 130 J/kg 10.3 K 0 % 0 % 0 % 0 m²/s² 0 0 14.89 2
09:00 183 J/kg 10.7 K 0 % 0 % 0 % 0 m²/s² 0 0 14.96 2
10:00 221 J/kg 11.2 K 0 % 0 % 0 % 0 m²/s² 0 0 15.22 2
11:00 221 J/kg 11.2 K 0 % 0 % 0 % 0 m²/s² 0 0 15.34 2
12:00 121 J/kg 12.8 K 0 % 0 % 0 % 0 m²/s² 0 0 18.95 2
13:00 142 J/kg 12.7 K 0 % 0 % 0 % 0 m²/s² 0 0 19.51 2
14:00 118 J/kg 13.5 K 0 % 0 % 0 % 0 m²/s² 0 0 20.1 2
15:00 138 J/kg 13.2 K 0 % 0 % 0 % 0 m²/s² 0 0 20.82 2
16:00 124 J/kg 13.8 K 0 % 0 % 0 % 0 m²/s² 0 0 21.21 2
17:00 111 J/kg 14.3 K 0 % 0 % 0 % 0 m²/s² 0 0 22.01 2
18:00 99 J/kg 14.9 K 0 % 0 % 0 % 0 m²/s² 0 0 21.47 2
19:00 99 J/kg 14.8 K 0 % 0 % 0 % 0 m²/s² 0 0 19.33 2
20:00 87 J/kg 14.9 K 0 % 0 % 0 % 0 m²/s² 0 0 18.41 2
21:00 74 J/kg 15.0 K 0 % 0 % 0 % 0 m²/s² 0 0 18.63 2
22:00 58 J/kg 15.0 K 0 % 0 % 0 % 0 m²/s² 0 0 17.94 45
Temp Baro Wind Neerslag
  EWN Forecast EWN WRFDA DWD ICON FMI HIRLAM MET Norway GFS
 07:32     17:09    Daglengte: 9:37 Morgen
00:00 9.5° 1006.1 hPa 1.7 m/s 2.9 mm 11.8° 1004.6 hPa 3.5 m/s 4.4 mm 8.8° 1006.3 hPa 1.4 m/s 2.4 mm 10.8° 1005.4 hPa 2.3 m/s 0.0 mm 9.4° 1006.4 hPa 1.6 m/s 6.1 mm 8.4° 1006.4 hPa 1.3 m/s
03:00 9.4° 1006.0 hPa 1.4 m/s 2.7 mm 11.9° 1004.4 hPa 3.0 m/s 8.0 mm 8.6° 1006.1 hPa 0.9 m/s 2.3 mm 9.2° 1005.4 hPa 1.1 m/s 0.0 mm 10.0° 1006.3 hPa 1.9 m/s 1.1 mm 9.1° 1005.9 hPa 1.1 m/s
06:00 9.1° 1006.1 hPa 1.2 m/s 2.2 mm 10.8° 1005.0 hPa 1.8 m/s 8.8 mm 7.7° 1005.7 hPa 0.9 m/s 0.6 mm 9.1° 1005.8 hPa 1.4 m/s 0.0 mm 9.7° 1006.6 hPa 0.9 m/s 0.7 mm 8.1° 1006.3 hPa 1.1 m/s
09:00 9.9° 1007.3 hPa 1.6 m/s 0.9 mm 11.9° 1006.1 hPa 1.6 m/s 9.6 mm 8.8° 1007.2 hPa 0.9 m/s 0.1 mm 10.1° 1006.3 hPa 2.1 m/s 0.0 mm 10.4° 1007.6 hPa 1.6 m/s 1.0 mm 9.3° 1007.6 hPa 1.6 m/s
12:00 12.6° 1007.1 hPa 2.5 m/s 1.5 mm 14.5° 1005.9 hPa 4.8 m/s 9.6 mm 11.1° 1007.4 hPa 2.0 m/s 1.1 mm 13.2° 1005.4 hPa 2.5 m/s 0.0 mm 12.7° 1007.4 hPa 2.5 m/s 0.7 mm 13.3° 1007.2 hPa 2.2 m/s
15:00 12.4° 1005.6 hPa 2.3 m/s 2.8 mm 14.4° 1004.8 hPa 4.4 m/s 9.6 mm 10.9° 1005.6 hPa 1.8 m/s 1.4 mm 13.0° 1003.9 hPa 1.8 m/s 0.0 mm 12.2° 1006.0 hPa 2.2 m/s 2.2 mm 13.4° 1005.9 hPa 2.5 m/s
18:00 10.5° 1005.6 hPa 1.8 m/s 2.5 mm 12.2° 1004.1 hPa 3.4 m/s 9.7 mm 9.2° 1006.0 hPa 1.3 m/s 0.5 mm 11.5° 1004.0 hPa 1.4 m/s 0.0 mm 10.4° 1005.9 hPa 1.7 m/s 1.1 mm 9.7° 1005.3 hPa 1.7 m/s
21:00 10.5° 1003.7 hPa 3.2 m/s 3.0 mm 12.1° 1002.5 hPa 4.9 m/s 10.1 mm 9.1° 1003.8 hPa 2.3 m/s 0.4 mm 11.7° 1002.0 hPa 3.1 m/s 0.0 mm 10.4° 1004.0 hPa 3.2 m/s 0.8 mm 9.5° 1003.9 hPa 2.4 m/s
 07:33     17:08    Daglengte: 9:35 Vrijdag 22 Nov
00:00 10.8° 1000.5 hPa 4.8 m/s 4.8 mm 12.0° 998.9 hPa 8.3 m/s 14.6 mm 9.6° 999.8 hPa 3.6 m/s 2.3 mm 11.7° 999.7 hPa 4.4 m/s 0.0 mm 10.7° 1001.4 hPa 4.7 m/s 3.0 mm 10.8° 999.5 hPa 5.0 m/s
03:00 11.4° 995.7 hPa 6.1 m/s 18.4 mm 12.6° 994.6 hPa 11.3 m/s 44.9 mm 9.9° 994.1 hPa 4.8 m/s 21.4 mm 11.7° 994.9 hPa 6.9 m/s 0.0 mm 11.6° 996.4 hPa 5.7 m/s 10.4 mm 11.7° 995.2 hPa 3.9 m/s
06:00 13.2° 991.3 hPa 5.5 m/s 26.2 mm 14.7° 990.0 hPa 7.8 m/s 68.0 mm 13.3° 989.9 hPa 3.5 m/s 16.7 mm 14.3° 991.5 hPa 4.9 m/s 0.0 mm 12.9° 991.5 hPa 6.6 m/s 19.7 mm 12.3° 989.8 hPa 3.3 m/s
09:00 14.0° 988.6 hPa 5.9 m/s 29.4 mm 14.1° 989.5 hPa 9.1 m/s 96.0 mm 13.8° 986.5 hPa 5.0 m/s 14.5 mm 15.0° 990.1 hPa 4.6 m/s 0.0 mm 13.5° 987.8 hPa 5.6 m/s 18.6 mm 13.2° 989.2 hPa 7.4 m/s
12:00 13.5° 989.9 hPa 5.8 m/s 20.7 mm 13.4° 988.8 hPa 8.1 m/s 100.7 mm 12.9° 988.2 hPa 5.7 m/s 4.8 mm 14.3° 990.3 hPa 4.0 m/s 0.0 mm 13.9° 990.2 hPa 6.2 m/s 11.5 mm 12.5° 989.7 hPa 5.3 m/s
15:00 13.2° 989.9 hPa 4.9 m/s 21.0 mm 14.1° 988.3 hPa 9.8 m/s 111.2 mm 11.8° 987.2 hPa 5.0 m/s 6.5 mm 14.2° 992.8 hPa 4.6 m/s 0.0 mm 13.3° 990.1 hPa 4.6 m/s 5.8 mm 13.3° 989.1 hPa 7.0 m/s
18:00 12.0° 992.9 hPa 3.7 m/s 26.7 mm 13.2° 991.4 hPa 8.8 m/s 119.0 mm 11.4° 987.7 hPa 1.7 m/s 5.7 mm 12.2° 994.9 hPa 1.9 m/s 0.0 mm 11.6° 996.2 hPa 3.4 m/s 0.0 mm 11.9° 992.3 hPa 5.3 m/s
21:00 10.7° 996.8 hPa 4.9 m/s 25.5 mm 11.3° 995.7 hPa 11.3 m/s 128.1 mm 10.2° 994.0 hPa 4.7 m/s 2.0 mm 10.8° 1000.6 hPa 3.2 m/s 0.4 mm 10.8° 997.3 hPa 5.1 m/s
 07:34     17:08    Daglengte: 9:34 Zaterdag 23 Nov
00:00 9.7° 1000.2 hPa 3.4 m/s 0.0 mm 11.3° 999.2 hPa 8.3 m/s 147.7 mm 9.3° 998.3 hPa 3.2 m/s 0.1 mm 9.7° 1003.2 hPa 1.9 m/s 0.3 mm 10.1° 1000.9 hPa 5.0 m/s
03:00 8.6° 1003.5 hPa 1.8 m/s 0.0 mm 9.7° 1002.3 hPa 4.7 m/s 154.3 mm 8.6° 1001.8 hPa 1.5 m/s 0.0 mm 8.6° 1005.4 hPa 1.4 m/s 1.0 mm 9.1° 1003.8 hPa 3.4 m/s
06:00 8.6° 1006.3 hPa 1.1 m/s 0.0 mm 10.2° 1004.2 hPa 4.5 m/s 154.5 mm 7.6° 1005.2 hPa 0.9 m/s 0.0 mm 8.8° 1007.5 hPa 0.9 m/s 0.9 mm 8.6° 1005.8 hPa 2.1 m/s
09:00 9.8° 1009.3 hPa 1.0 m/s 52.0 mm 12.6° 1007.4 hPa 5.9 m/s 154.7 mm 9.3° 1009.1 hPa 0.6 m/s 0.0 mm 9.5° 1009.8 hPa 0.3 m/s 0.6 mm 10.2° 1009.1 hPa 2.4 m/s
12:00 12.4° 1010.8 hPa 2.4 m/s 34.6 mm 13.9° 1009.0 hPa 8.6 m/s 155.0 mm 12.2° 1010.4 hPa 2.4 m/s 0.1 mm 12.2° 1011.5 hPa 1.2 m/s 0.4 mm 12.9° 1010.9 hPa 3.6 m/s
15:00 12.6° 1011.5 hPa 2.4 m/s 17.4 mm 13.6° 1010.0 hPa 7.9 m/s 155.1 mm 12.3° 1011.6 hPa 2.3 m/s 0.1 mm 12.5° 1011.7 hPa 1.4 m/s 0.3 mm 12.7° 1011.5 hPa 3.6 m/s
18:00 9.5° 1013.5 hPa 1.6 m/s 0.0 mm 10.2° 1012.1 hPa 3.0 m/s 155.3 mm 9.3° 1014.4 hPa 0.6 m/s 0.0 mm 9.4° 1013.5 hPa 1.6 m/s 0.0 mm 9.0° 1014.0 hPa 1.8 m/s
21:00 9.2° 1014.3 hPa 1.7 m/s 0.0 mm 9.1° 1013.8 hPa 2.5 m/s 155.6 mm 8.3° 1015.7 hPa 1.3 m/s 0.0 mm 9.6° 1014.1 hPa 1.6 m/s 8.1° 1016.0 hPa 0.7 m/s
 07:36     17:07    Daglengte: 9:31 Zondag 24 Nov
00:00 9.2° 1015.1 hPa 1.7 m/s 0.0 mm 8.9° 1014.6 hPa 2.0 m/s 155.6 mm 8.1° 1016.7 hPa 1.4 m/s 0.0 mm 9.8° 1014.8 hPa 1.7 m/s 8.2° 1017.4 hPa 0.8 m/s
03:00 10.9° 1013.9 hPa 2.3 m/s 64.0 mm 11.1° 1013.5 hPa 2.4 m/s 7.9° 1017.4 hPa 1.2 m/s 64.0 mm
06:00 11.6° 1013.3 hPa 2.6 m/s 64.0 mm 11.8° 1012.9 hPa 2.7 m/s 9.1° 1017.7 hPa 1.6 m/s 64.0 mm
09:00 12.9° 1012.8 hPa 3.7 m/s 64.0 mm 13.2° 1012.3 hPa 3.9 m/s 10.3° 1018.1 hPa 1.8 m/s 64.0 mm
12:00 14.4° 1012.3 hPa 4.9 m/s 64.0 mm 14.5° 1011.8 hPa 5.1 m/s 13.4° 1017.9 hPa 2.5 m/s 64.0 mm
15:00 14.8° 1011.6 hPa 4.5 m/s 64.0 mm 14.9° 1011.1 hPa 4.7 m/s 13.1° 1016.7 hPa 2.5 m/s 64.0 mm
18:00 15.1° 1011.0 hPa 4.2 m/s 64.1 mm 15.4° 1010.5 hPa 4.3 m/s 11.9° 1016.5 hPa 3.0 m/s 64.1 mm
21:00 14.9° 1011.8 hPa 3.6 m/s 64.8 mm 15.2° 1011.4 hPa 3.7 m/s 11.6° 1016.7 hPa 2.6 m/s 64.8 mm
 07:37     17:07    Daglengte: 9:30 Maandag 25 Nov
00:00 14.8° 1012.6 hPa 3.1 m/s 66.3 mm 15.1° 1012.2 hPa 3.1 m/s 11.8° 1017.1 hPa 2.7 m/s 66.3 mm
03:00 13.3° 1013.7 hPa 2.5 m/s 69.1 mm 13.4° 1013.4 hPa 2.6 m/s 11.9° 1017.1 hPa 1.8 m/s 69.1 mm
06:00 11.8° 1014.7 hPa 2.1 m/s 69.6 mm 11.8° 1014.5 hPa 2.1 m/s 12.3° 1017.5 hPa 1.7 m/s 69.6 mm
09:00 13.3° 1016.1 hPa 2.3 m/s 69.8 mm 13.4° 1015.9 hPa 2.4 m/s 13.0° 1019.1 hPa 1.2 m/s 69.8 mm
12:00 15.0° 1017.3 hPa 2.6 m/s 70.0 mm 14.9° 1017.2 hPa 2.7 m/s 15.8° 1019.0 hPa 1.7 m/s 70.0 mm
15:00 13.2° 1017.0 hPa 2.3 m/s 70.4 mm 12.9° 1017.0 hPa 2.4 m/s 16.0° 1017.5 hPa 1.2 m/s 70.4 mm
18:00 11.2° 1016.9 hPa 2.0 m/s 70.9 mm 11.0° 1016.8 hPa 2.1 m/s 13.2° 1017.6 hPa 0.7 m/s 70.9 mm
21:00 11.7° 1015.8 hPa 2.3 m/s 70.9 mm 11.6° 1015.6 hPa 2.5 m/s 13.3° 1017.9 hPa 0.7 m/s 70.9 mm
 07:38     17:06    Daglengte: 9:28 Dinsdag 26 Nov
00:00 12.2° 1014.8 hPa 2.7 m/s 70.9 mm 12.1° 1014.5 hPa 2.8 m/s 13.0° 1017.6 hPa 1.3 m/s 70.9 mm
03:00 13.1° 1012.3 hPa 2.9 m/s 70.9 mm 13.2° 1011.9 hPa 3.0 m/s 11.9° 1016.7 hPa 1.8 m/s 70.9 mm
06:00 14.2° 1009.7 hPa 3.0 m/s 70.9 mm 14.4° 1009.2 hPa 3.1 m/s 11.9° 1014.8 hPa 2.4 m/s 70.9 mm
09:00 15.1° 1009.3 hPa 4.5 m/s 71.3 mm 15.2° 1009.0 hPa 4.7 m/s 13.0° 1013.6 hPa 2.5 m/s 71.3 mm
12:00 15.9° 1009.0 hPa 5.9 m/s 80.7 mm 16.1° 1008.7 hPa 6.2 m/s 13.3° 1011.8 hPa 3.2 m/s 80.7 mm
15:00 15.6° 1008.7 hPa 5.3 m/s 104.7 mm 15.7° 1008.7 hPa 5.6 m/s 14.7° 1009.1 hPa 2.5 m/s 104.7 mm
18:00 15.3° 1008.6 hPa 4.8 m/s 112.3 mm 15.2° 1008.6 hPa 4.9 m/s 16.1° 1008.2 hPa 4.2 m/s 112.3 mm
21:00 14.4° 1009.7 hPa 3.9 m/s 115.2 mm 14.3° 1009.9 hPa 3.9 m/s 15.4° 1007.9 hPa 3.7 m/s 115.2 mm
 07:39     17:06    Daglengte: 9:27 Woensdag 27 Nov
00:00 13.6° 1010.8 hPa 2.9 m/s 117.5 mm 13.5° 1011.1 hPa 2.9 m/s 14.4° 1008.0 hPa 2.8 m/s 117.5 mm
03:00 12.5° 1011.1 hPa 2.4 m/s 119.0 mm 12.4° 1011.4 hPa 2.3 m/s 13.1° 1008.0 hPa 3.1 m/s 119.0 mm
06:00 11.5° 1011.4 hPa 1.8 m/s 120.8 mm 11.4° 1011.7 hPa 1.7 m/s 12.3° 1008.6 hPa 2.6 m/s 120.8 mm
09:00 13.1° 1012.8 hPa 2.3 m/s 121.3 mm 13.2° 1013.0 hPa 2.4 m/s 12.6° 1010.5 hPa 2.0 m/s 121.3 mm
12:00 15.0° 1014.0 hPa 3.1 m/s 122.8 mm 15.0° 1014.3 hPa 3.0 m/s 14.6° 1011.0 hPa 4.0 m/s 122.8 mm
15:00 14.2° 1014.3 hPa 2.6 m/s 124.8 mm 14.2° 1014.6 hPa 2.5 m/s 14.3° 1010.4 hPa 3.3 m/s 124.8 mm
18:00 13.3° 1014.7 hPa 2.0 m/s 125.7 mm 13.4° 1015.0 hPa 2.0 m/s 12.4° 1011.0 hPa 1.9 m/s 125.7 mm
21:00 12.9° 1014.9 hPa 2.5 m/s 126.5 mm 12.9° 1015.2 hPa 2.5 m/s 12.8° 1011.9 hPa 2.7 m/s 126.5 mm
 07:40     17:05    Daglengte: 9:25 Donderdag 28 Nov
00:00 12.5° 1015.1 hPa 3.0 m/s 127.5 mm 12.5° 1015.4 hPa 3.0 m/s 12.3° 1011.6 hPa 2.9 m/s 127.5 mm
06:00 12.4° 1013.3 hPa 3.7 m/s 130.9 mm 12.3° 1013.7 hPa 3.7 m/s 13.1° 1008.3 hPa 3.9 m/s 130.9 mm
12:00 14.7° 1013.0 hPa 5.3 m/s 155.9 mm 14.7° 1013.2 hPa 5.5 m/s 14.8° 1010.8 hPa 3.1 m/s 155.9 mm
18:00 15.1° 1011.1 hPa 3.5 m/s 160.9 mm 15.2° 1011.0 hPa 3.7 m/s 14.3° 1011.9 hPa 1.0 m/s 160.9 mm
 07:41     17:05    Daglengte: 9:24 Vrijdag 29 Nov
00:00 15.0° 1012.7 hPa 4.4 m/s 161.4 mm 15.1° 1012.5 hPa 4.7 m/s 14.0° 1014.8 hPa 1.3 m/s 161.4 mm
06:00 15.0° 1012.2 hPa 4.5 m/s 161.5 mm 15.2° 1011.9 hPa 4.7 m/s 13.2° 1015.7 hPa 1.9 m/s 161.5 mm
12:00 15.6° 1013.0 hPa 5.7 m/s 162.7 mm 15.7° 1012.8 hPa 6.0 m/s 14.7° 1015.0 hPa 2.5 m/s 162.7 mm
18:00 15.3° 1012.3 hPa 4.9 m/s 163.4 mm 15.3° 1012.4 hPa 5.0 m/s 14.8° 1011.8 hPa 3.9 m/s 163.4 mm
 07:42     17:04    Daglengte: 9:22 Zaterdag 30 Nov
00:00 15.3° 1011.5 hPa 5.9 m/s 177.6 mm 15.4° 1011.4 hPa 6.1 m/s 14.5° 1012.1 hPa 3.7 m/s 177.6 mm
06:00 13.5° 1013.2 hPa 2.6 m/s 179.2 mm 13.6° 1013.1 hPa 2.7 m/s 12.2° 1014.9 hPa 2.0 m/s 179.2 mm
12:00 15.2° 1016.0 hPa 4.7 m/s 181.0 mm 15.2° 1015.8 hPa 4.9 m/s 15.3° 1017.9 hPa 2.6 m/s 181.0 mm
18:00 13.2° 1012.5 hPa 1.4 m/s 1.9 mm
 07:43     17:04    Daglengte: 9:21 Zondag 01 Dec
00:00 12.6° 1014.1 hPa 1.7 m/s 1.8 mm
06:00 12.2° 1014.7 hPa 1.4 m/s 1.3 mm
12:00 14.1° 1015.8 hPa 2.3 m/s 1.6 mm
18:00 13.3° 1015.8 hPa 1.6 m/s 1.0 mm
 07:44     17:04    Daglengte: 9:20 Maandag 02 Dec
00:00 12.4° 1016.5 hPa 2.6 m/s 0.9 mm
06:00 12.0° 1016.5 hPa 2.5 m/s 2.0 mm
12:00 13.5° 1017.3 hPa 2.2 m/s 3.5 mm
18:00 12.5° 1017.2 hPa 1.8 m/s 3.0 mm
 07:45     17:04    Daglengte: 9:19 Dinsdag 03 Dec
00:00 12.0° 1017.7 hPa 2.3 m/s 1.6 mm
06:00 11.5° 1017.2 hPa 2.1 m/s 1.5 mm
12:00 13.3° 1018.3 hPa 2.4 m/s 2.0 mm
18:00 12.7° 1018.1 hPa 2.0 m/s 2.6 mm
 07:46     17:03    Daglengte: 9:17 Woensdag 04 Dec
00:00 12.5° 1019.2 hPa 1.6 m/s 2.2 mm
06:00 12.1° 1018.5 hPa 1.2 m/s 1.4 mm
12:00 13.5° 1018.7 hPa 1.9 m/s 2.3 mm
18:00 13.0° 1017.6 hPa 0.8 m/s 2.1 mm
 07:47     17:03    Daglengte: 9:16 Donderdag 05 Dec
00:00 12.2° 1017.6 hPa 1.3 m/s 2.3 mm
06:00 11.8° 1016.3 hPa 1.9 m/s 2.8 mm
12:00 13.4° 1016.2 hPa 2.7 m/s 2.9 mm
18:00 12.9° 1015.4 hPa 2.0 m/s 5.6 mm
FMI Hirlam - 7.5 km EWN WRFDA - 12 km DWD ICON - 7 km GFS - 25 km Basiskaart






























































Updatetijd (Europe/Amsterdam) Resolutie Lengte Stap
FMI Hirlam 18:00, 00:00, 06:00, 12:00 7.5 km 49h 1h
EWN WRFDA 20:15, 02:15, 08:15, 14:15 12 km 73h 1h
DWD ICON 22:45, 04:45, 10:45, 16:45 7 km 75h 1h
GFS 19:30, 01:30, 07:30, 13:30 25 km 237h 3h
30+ mm
25-30 mm
20-25 mm
15-20 mm
10-15 mm
6-10 mm
4-6 mm
2-4 mm
1-2 mm
0.5-1 mm
0.2-0.5 mm
0.1-0.2 mm
30+ mm
25-30 mm
20-25 mm
15-20 mm
10-15 mm
6-10 mm
4-6 mm
2-4 mm
1-2 mm
0.5-1 mm
0.2-0.5 mm
0.1-0.2 mm
Sneeuwval
Natte sneeuw
Hagel
Vorst
30+ mm
25-30 mm
20-25 mm
15-20 mm
10-15 mm
6-10 mm
4-6 mm
2-4 mm
1-2 mm
0.5-1 mm
0.2-0.5 mm
0.1-0.2 mm
Sneeuwval
Natte sneeuw
Hagel
Vorst
Onweer
50 mm
40 mm
30 mm
26 mm
22 mm
18 mm
14 mm
10 mm
9 mm
8 mm
7 mm
6 mm
5 mm
4.5 mm
4 mm
3.5 mm
3 mm
2.5 mm
2 mm
1.5 mm
1 mm
0.8 mm
0.6 mm
0.4 mm
0.2 mm
0.05 mm
35°
30°
25°
20°
15°
10°
-5°
-10°
-15°
-20°
-25°
-30°
-35°
120> km/h
105 km/h
90 km/h
75 km/h
60 km/h
50 km/h
40 km/h
30 km/h
20 km/h
10 km/h
0 km/h
2600 J/kg
2400 J/kg
2200 J/kg
2000 J/kg
1800 J/kg
1600 J/kg
1400 J/kg
1200 J/kg
1000 J/kg
800 J/kg
600 J/kg
400 J/kg
200 J/kg
70 dBZ
65 dBZ
60 dBZ
55 dBZ
50 dBZ
45 dBZ
40 dBZ
35 dBZ
30 dBZ
25 dBZ
20 dBZ
15 dBZ
10 dBZ
5 dBZ
-1 K
-2 K
-3 K
-4 K
-5 K
-6 K
-7 K
-8 K
-9 K
950 m²/s²
900 m²/s²
850 m²/s²
800 m²/s²
750 m²/s²
700 m²/s²
650 m²/s²
600 m²/s²
550 m²/s²
500 m²/s²
450 m²/s²
400 m²/s²
350 m²/s²
300 m²/s²
250 m²/s²
200 m²/s²
150 m²/s²
100 m²/s²
46 m/s
44 m/s
42 m/s
40 m/s
38 m/s
36 m/s
34 m/s
32 m/s
30 m/s
28 m/s
26 m/s
24 m/s
22 m/s
20 m/s
16 m/s
12 m/s
8 m/s
4 m/s
30 m/s
28 m/s
26 m/s
24 m/s
22 m/s
20 m/s
18 m/s
16 m/s
14 m/s
12 m/s
10 m/s
8 m/s
6 m/s
4 m/s
2 m/s
3.0
2.8
2.6
2.4
2.2
2.0
1.8
1.6
1.4
1.2
1.0
0.8
0.6
0.4
0.2
15
14
13
12
11
10
9
8
7
6
5
4
3
2
1
90%
80%
70%
60%
50%
40%
30%
20%
10%
42
40
38
36
34
32
30
28
26
24
22
20
18
16
14
12
90+ cm
80-90 cm
70-80 cm
60-70 cm
50-60 cm
40-50 cm
30-40 cm
20-30 cm
10-20 cm
1-10 cm
Sneeuwval
Natte sneeuw
Regen
>120 mm
115 mm
110 mm
105 mm
100 mm
95 mm
90 mm
85 mm
80 mm
75 mm
70 mm
65 mm
60 mm
55 mm
50 mm
45 mm
45 mm
40 mm
35 mm
30 mm
25 mm
20 mm
15 mm
10 mm
5 mm
0.1 mm
960 hPa
880 hPa
800 hPa
720 hPa
640 hPa
560 hPa
584 gpdm
568 gpdm
552 gpdm
536 gpdm
520 gpdm
504 gpdm
488 gpdm
Extreem zwaar Noodweer Kans op onweer
15% 15% 5% 50% 15%

Dag




Kaart






35°
30°
25°
20°
15°
10°
-5°
-10°
-15°
-20°
-25°
-30°
-35°
120> km/h
105 km/h
90 km/h
75 km/h
60 km/h
50 km/h
40 km/h
30 km/h
20 km/h
10 km/h
0 km/h
Extreem zwaar Noodweer Kans op onweer
15% 15% 5% 50% 15%
>120 mm
115 mm
110 mm
105 mm
100 mm
95 mm
90 mm
85 mm
80 mm
75 mm
70 mm
65 mm
60 mm
55 mm
50 mm
45 mm
45 mm
40 mm
35 mm
30 mm
25 mm
20 mm
15 mm
10 mm
5 mm
0.1 mm
Onweer risico kaarten - De groene en gele kleur geeft de kans op onweer aan binnen 40 km van een punt. Oranje, rood en violet hebben hetzelfde niveau zoals je het ziet op estofex.org waaronder ook de kans op hagel en supercells.

dBZ - dBZ staat voor decibel ten opzichte van Z.

Cape - Convective available potential energy (CAPE), is de totale hoeveelheid energie die een luchtpakketje nodig heeft om zover mogelijk te stijgen in de atmosfeer.

K Index - K-Index wordt berekend door de Vertical Totals (VT) en het verschil tussen de 850 hPa temperatuur en de 700 hPa dauwpuntsdepressie (Tdd 700) bij elkaar op te tellen.

TT Index - Convectie index wordt gebruikt voor het voorspellen van zware buien of onweer.

WRF - The Weather Research and Forecasting (WRF) is een volgende generatie mesoscale numeriek weersvoorspelling systeem ontworpen om zowel de operationele planning als het atmosferisch onderzoek te dienen. WRF is a cooperatie tussen het National Center for Atmospheric Research (NCAR), National Centers for Environmental Prediction (NCEP), Forecast Systems Laboratory (FSL), Air Force Weather Agency (AFWA), Naval Research Laboratory, University of Oklahoma, en de Federal Aviation Administration (FAA). Deze software draait op onze server.

WRFDA - Een meer geavanceerde versie van WRF

Arome - Het 2.5 km Arome model. Verzorgd door het Noors Meteorologisch Instituut.

MET Norway - De proff-default 4km meteorological data is een beste keus selectie van meteorologische modellen gebruikt door met.no die zijn geÔnterpoleerd tot een gemeenschappelijke dataset. Verzorgd door het Noorse Meteorologisch Instituut.

SMHI - Het Hirlam model verzorgd door het Zweeds meteorologisch instituut.

FMI - Het Hirlam model verzorgd door het Fins meteorologisch instituut. Dekking alleen Finland.

GFS - Het Global Forecast Systeem (GFS) is een wereldwijd numerieke weersvoorspelling computermodel, gerund door NOAA.

GEM-GDPS - Het GEM-GDPS is a wereldwijd numeriek weersvoorspelling computermodel verzorgd door het Canadees Meteorologisch Centrum.

Credits/Info: Dank aan Stefan Gofferje van sääkeskus.fi voor enkele formules van GrADS. Info: Wikipedia.

Betrouwbaarheid van de verwachting

NB! 2015-03-29: Rebuilding the accuracy-test!

EWNACC
Day 1 Good forecasts

Dag 1 Tmax

Dag 2 Tmax

Geladen verwachtingen TOP 50

Totaal geladen verwachtingen:
Plaats Latitude Longitude Verwachtingen Plaats Latitude Longitude Verwachtingen